Time,TemperatureF,DewpointF,PressureIn,WindDirection,WindDirectionDegrees,WindSpeedMPH,WindSpeedGustMPH,Humidity,HourlyPrecipIn,Conditions,Clouds,dailyrainin,SoftwareType,DateUTC
2013-03-08 00:00:00,31.6,22.6,30.15,NW,319,14.5,15.8,69,0.00,,OVC028,0.00,VWS V14.00,2013-03-08 05:00:00,
2013-03-08 00:01:00,31.4,22.8,30.15,NW,305,14.0,18.5,70,0.00,,OVC028,0.00,VWS V14.00,2013-03-08 05:01:00,
2013-03-08 00:02:00,31.6,22.9,30.15,NW,310,11.6,18.5,70,0.00,,OVC028,0.00,VWS V14.00,2013-03-08 05:02:00,
2013-03-08 00:07:00,31.6,22.9,30.15,NW,318,9.6,12.6,70,0.00,,OVC019,0.00,VWS V14.00,2013-03-08 05:07:00,
2013-03-08 00:12:00,31.6,22.6,30.15,West,278,6.9,7.5,69,0.00,,OVC019,0.00,VWS V14.00,2013-03-08 05:12:00,
2013-03-08 00:17:00,31.6,22.6,30.15,WNW,288,11.1,12.1,69,0.00,,OVC019,0.00,VWS V14.00,2013-03-08 05:17:00,
2013-03-08 00:22:00,31.4,22.4,30.15,NW,321,12.1,13.2,69,0.00,,OVC019,0.00,VWS V14.00,2013-03-08 05:22:00,
2013-03-08 00:27:00,31.2,22.9,30.15,WNW,302,14.0,16.9,71,0.00,,OVC019,0.00,VWS V14.00,2013-03-08 05:27:00,
2013-03-08 00:32:00,31.2,22.9,30.15,West,271,9.6,12.6,71,0.00,,OVC019,0.00,VWS V14.00,2013-03-08 05:32:00,
2013-03-08 00:37:00,31.2,22.9,30.15,WNW,290,11.1,12.6,71,0.00,,OVC019,0.00,VWS V14.00,2013-03-08 05:37:00,
2013-03-08 00:42:00,31.2,22.9,30.15,NW,310,12.1,13.2,71,0.00,,OVC019,0.00,VWS V14.00,2013-03-08 05:42:00,
2013-03-08 00:47:00,31.0,23.1,30.12,West,271,11.1,15.8,72,0.00,,OVC019,0.00,VWS V14.00,2013-03-08 05:47:00,
2013-03-08 00:52:00,31.2,23.3,30.12,West,281,13.5,14.8,72,0.00,,OVC019,0.00,VWS V14.00,2013-03-08 05:52:00,
2013-03-08 00:57:00,31.2,23.3,30.12,WNW,288,12.1,13.2,72,0.00,,OVC019,0.00,VWS V14.00,2013-03-08 05:57:00,
2013-03-08 01:02:00,31.2,23.6,30.15,NW,308,12.1,13.2,73,0.00,,OVC023,0.00,VWS V14.00,2013-03-08 06:02:00,
2013-03-08 01:07:00,31.0,23.4,30.15,West,262,10.1,11.0,73,0.00,,OVC023,0.00,VWS V14.00,2013-03-08 06:07:00,
2013-03-08 01:12:00,31.0,23.7,30.15,WNW,290,11.1,12.6,74,0.00,,OVC023,0.00,VWS V14.00,2013-03-08 06:12:00,
2013-03-08 01:17:00,31.0,24.0,30.15,West,274,11.1,14.8,75,0.00,,OVC021,0.00,VWS V14.00,2013-03-08 06:17:00,
2013-03-08 01:22:00,31.0,24.0,30.15,West,279,6.4,9.1,75,0.00,,OVC021,0.00,VWS V14.00,2013-03-08 06:22:00,
2013-03-08 01:27:00,31.0,24.0,30.15,NW,323,8.9,9.7,75,0.00,,OVC021,0.00,VWS V14.00,2013-03-08 06:27:00,
2013-03-08 01:32:00,31.0,24.0,30.15,WNW,285,9.1,9.9,75,0.00,,OVC021,0.00,VWS V14.00,2013-03-08 06:32:00,
2013-03-08 01:37:00,31.0,24.0,30.15,WNW,298,12.1,15.3,75,0.00,,OVC021,0.00,VWS V14.00,2013-03-08 06:37:00,
2013-03-08 01:43:00,31.0,24.0,30.15,WNW,283,8.9,10.5,75,0.00,,OVC021,0.00,VWS V14.00,2013-03-08 06:43:00,
2013-03-08 01:48:00,31.0,24.0,30.15,West,281,8.4,9.9,75,0.00,,OVC021,0.00,VWS V14.00,2013-03-08 06:48:00,
2013-03-08 01:53:00,30.9,23.9,30.15,West,270,6.9,8.6,75,0.00,,OVC021,0.00,VWS V14.00,2013-03-08 06:53:00,
2013-03-08 01:58:00,30.9,24.2,30.15,WNW,295,11.1,12.1,76,0.00,,OVC021,0.00,VWS V14.00,2013-03-08 06:58:00,
2013-03-08 02:03:00,30.9,24.2,30.15,WSW,258,9.1,18.5,76,0.00,,OVC023,0.00,VWS V14.00,2013-03-08 07:03:00,
2013-03-08 02:08:00,30.9,24.2,30.15,West,278,9.6,12.1,76,0.00,,OVC023,0.00,VWS V14.00,2013-03-08 07:08:00,
2013-03-08 02:13:00,30.7,24.0,30.15,West,270,11.1,13.2,76,0.00,,OVC023,0.00,VWS V14.00,2013-03-08 07:13:00,
2013-03-08 02:18:00,30.9,24.5,30.15,WNW,301,8.4,11.5,77,0.00,,OVC023,0.00,VWS V14.00,2013-03-08 07:18:00,
2013-03-08 02:23:00,30.9,24.5,30.15,West,278,10.6,11.5,77,0.00,,OVC023,0.00,VWS V14.00,2013-03-08 07:23:00,
2013-03-08 02:28:00,30.7,24.6,30.15,WSW,251,6.4,9.1,78,0.00,,OVC023,0.00,VWS V14.00,2013-03-08 07:28:00,
2013-03-08 02:33:00,30.7,24.6,30.15,NW,314,9.6,13.2,78,0.00,,OVC023,0.00,VWS V14.00,2013-03-08 07:33:00,
2013-03-08 02:38:00,30.7,24.3,30.15,WNW,293,9.6,10.5,77,0.00,,OVC023,0.00,VWS V14.00,2013-03-08 07:38:00,
2013-03-08 02:43:00,30.7,24.3,30.15,WNW,282,9.1,12.6,77,0.00,,OVC023,0.00,VWS V14.00,2013-03-08 07:43:00,
2013-03-08 02:48:00,30.5,24.1,30.15,WSW,256,6.9,12.1,77,0.00,,OVC023,0.00,VWS V14.00,2013-03-08 07:48:00,
2013-03-08 02:53:00,30.5,24.1,30.15,West,262,9.1,9.9,77,0.00,,OVC023,0.00,VWS V14.00,2013-03-08 07:53:00,
2013-03-08 02:58:00,30.7,24.0,30.15,West,281,5.9,7.0,76,0.00,,OVC023,0.00,VWS V14.00,2013-03-08 07:58:00,
2013-03-08 03:03:00,30.7,24.0,30.15,NW,311,5.9,8.1,76,0.00,,OVC026,0.00,VWS V14.00,2013-03-08 08:03:00,
2013-03-08 03:08:00,30.5,24.1,30.15,NW,325,3.4,4.8,77,0.00,,OVC026,0.00,VWS V14.00,2013-03-08 08:08:00,
2013-03-08 03:14:00,30.9,23.9,30.15,WSW,256,9.1,9.9,75,0.00,,OVC026,0.00,VWS V14.00,2013-03-08 08:14:00,
2013-03-08 03:19:00,31.0,23.1,30.12,NNW,346,6.4,10.5,72,0.00,,OVC024,0.00,VWS V14.00,2013-03-08 08:19:00,
2013-03-08 03:24:00,30.9,22.9,30.12,WNW,296,4.9,5.4,72,0.00,,OVC024,0.00,VWS V14.00,2013-03-08 08:24:00,
2013-03-08 03:29:00,31.0,23.1,30.12,NNW,331,5.9,6.4,72,0.00,,OVC024,0.00,VWS V14.00,2013-03-08 08:29:00,
2013-03-08 03:34:00,31.0,22.1,30.12,North,357,5.4,5.9,69,0.00,,OVC024,0.00,VWS V14.00,2013-03-08 08:34:00,
2013-03-08 03:39:00,31.2,21.9,30.12,NW,316,9.6,10.5,68,0.00,,OVC024,0.00,VWS V14.00,2013-03-08 08:39:00,
2013-03-08 03:44:00,31.0,20.7,30.12,North,353,3.4,10.5,65,0.00,,OVC024,0.00,VWS V14.00,2013-03-08 08:44:00,
2013-03-08 03:49:00,31.0,19.9,30.12,NNW,330,16.0,17.4,63,0.00,,OVC024,0.00,VWS V14.00,2013-03-08 08:49:00,
2013-03-08 03:54:00,30.9,19.8,30.12,NNE,18,3.4,7.0,63,0.00,,OVC024,0.00,VWS V14.00,2013-03-08 08:54:00,
2013-03-08 03:59:00,31.0,18.8,30.12,NNW,334,11.1,15.8,60,0.00,,OVC024,0.00,VWS V14.00,2013-03-08 08:59:00,
2013-03-08 04:04:00,30.9,18.2,30.12,North,9,3.4,4.8,59,0.00,,OVC010,0.00,VWS V14.00,2013-03-08 09:04:00,
2013-03-08 04:09:00,30.7,18.0,30.12,NW,309,10.1,18.0,59,0.00,,OVC010,0.00,VWS V14.00,2013-03-08 09:09:00,
2013-03-08 04:14:00,30.9,17.8,30.12,NNW,348,3.0,4.8,58,0.00,,OVC010,0.00,VWS V14.00,2013-03-08 09:14:00,
2013-03-08 04:19:00,30.9,17.8,30.15,NW,323,16.5,18.5,58,0.00,,OVC008,0.00,VWS V14.00,2013-03-08 09:19:00,
2013-03-08 04:24:00,30.7,17.6,30.15,NNW,336,11.1,12.6,58,0.00,,OVC008,0.00,VWS V14.00,2013-03-08 09:24:00,
2013-03-08 04:30:00,30.7,17.6,30.15,NW,314,9.6,11.0,58,0.00,,OVC008,0.00,VWS V14.00,2013-03-08 09:30:00,
2013-03-08 04:35:00,30.5,17.5,30.15,North,4,3.0,7.5,58,0.00,,OVC008,0.00,VWS V14.00,2013-03-08 09:35:00,
2013-03-08 04:40:00,30.5,17.1,30.15,NNE,17,2.5,9.9,57,0.00,,OVC008,0.00,VWS V14.00,2013-03-08 09:40:00,
2013-03-08 04:45:00,30.3,17.3,30.15,ENE,65,3.0,4.3,58,0.00,,OVC008,0.00,VWS V14.00,2013-03-08 09:45:00,
2013-03-08 04:50:00,30.3,16.5,30.15,NNE,31,6.9,13.2,56,0.00,,OVC008,0.00,VWS V14.00,2013-03-08 09:50:00,
2013-03-08 04:55:00,30.3,16.1,30.15,NNE,20,8.9,19.1,55,0.00,,OVC008,0.00,VWS V14.00,2013-03-08 09:55:00,
2013-03-08 05:00:00,30.1,15.9,30.15,NNW,335,2.5,4.3,55,0.00,,OVC008,0.00,VWS V14.00,2013-03-08 10:00:00,
2013-03-08 05:05:00,30.1,15.9,30.15,North,353,7.9,17.4,55,0.00,,OVC008,0.00,VWS V14.00,2013-03-08 10:05:00,
2013-03-08 05:10:00,29.9,15.7,30.15,NW,323,22.6,24.7,55,0.00,,OVC008,0.00,VWS V14.00,2013-03-08 10:10:00,
2013-03-08 05:15:00,29.9,16.1,30.15,NNW,331,19.2,20.9,56,0.00,,OVC008,0.00,VWS V14.00,2013-03-08 10:15:00,
2013-03-08 05:20:00,29.7,16.0,30.15,NNW,341,8.9,18.0,56,0.00,,OVC008,0.00,VWS V14.00,2013-03-08 10:20:00,
2013-03-08 05:25:00,29.9,15.7,30.15,NNW,333,9.6,17.4,55,0.00,,OVC008,0.00,VWS V14.00,2013-03-08 10:25:00,
2013-03-08 05:30:00,29.7,15.6,30.15,NNW,331,9.6,19.6,55,0.00,,OVC008,0.00,VWS V14.00,2013-03-08 10:30:00,
2013-03-08 05:36:00,29.7,16.0,30.15,NNW,328,16.0,21.5,56,0.00,,OVC008,0.00,VWS V14.00,2013-03-08 10:36:00,
2013-03-08 05:41:00,29.5,16.2,30.15,NNW,339,12.1,13.7,57,0.00,,OVC008,0.00,VWS V14.00,2013-03-08 10:41:00,
2013-03-08 05:46:00,29.4,16.8,30.15,NNW,331,7.4,8.1,59,0.00,,OVC008,0.00,VWS V14.00,2013-03-08 10:46:00,
2013-03-08 05:51:00,29.5,16.6,30.15,NNW,346,9.1,12.6,58,0.00,,OVC008,0.00,VWS V14.00,2013-03-08 10:51:00,
2013-03-08 05:56:00,29.7,16.4,30.15,NNW,330,5.9,7.0,57,0.00,,OVC008,0.00,VWS V14.00,2013-03-08 10:56:00,
2013-03-08 06:01:00,29.5,16.2,30.15,NNW,344,3.4,9.1,57,0.00,,OVC008,0.00,VWS V14.00,2013-03-08 11:01:00,
2013-03-08 06:06:00,29.5,16.6,30.18,North,6,5.9,13.2,58,0.00,,OVC016,0.00,VWS V14.00,2013-03-08 11:06:00,
2013-03-08 06:11:00,29.4,17.6,30.18,NNW,328,11.1,13.2,61,0.00,,OVC016,0.00,VWS V14.00,2013-03-08 11:11:00,
2013-03-08 06:16:00,29.4,17.2,30.18,North,0,3.0,6.4,60,0.00,,OVC014,0.00,VWS V14.00,2013-03-08 11:16:00,
2013-03-08 06:21:00,29.4,17.2,30.18,North,353,8.9,11.0,60,0.00,,OVC014,0.00,VWS V14.00,2013-03-08 11:21:00,
2013-03-08 06:26:00,29.4,17.6,30.18,NNW,339,9.1,9.9,61,0.00,,OVC014,0.00,VWS V14.00,2013-03-08 11:26:00,
2013-03-08 06:31:00,29.2,17.8,30.18,NE,49,3.0,4.3,62,0.00,,OVC014,0.00,VWS V14.00,2013-03-08 11:31:00,
2013-03-08 06:37:00,29.4,17.2,30.18,North,349,12.1,13.2,60,0.00,,OVC014,0.00,VWS V14.00,2013-03-08 11:37:00,
2013-03-08 06:42:00,29.2,17.8,30.18,North,5,3.0,3.2,62,0.00,,OVC014,0.00,VWS V14.00,2013-03-08 11:42:00,
2013-03-08 06:47:00,29.0,17.2,30.18,NNW,345,6.9,7.5,61,0.00,,OVC014,0.00,VWS V14.00,2013-03-08 11:47:00,
2013-03-08 06:52:00,28.8,16.3,30.18,North,353,5.9,10.5,59,0.00,,OVC014,0.00,VWS V14.00,2013-03-08 11:52:00,
2013-03-08 06:57:00,28.6,15.7,30.18,NNE,27,3.0,5.9,58,0.00,,OVC014,0.00,VWS V14.00,2013-03-08 11:57:00,
2013-03-08 07:02:00,28.4,15.2,30.18,North,357,5.9,9.7,57,0.00,,OVC014,0.00,VWS V14.00,2013-03-08 12:02:00,
2013-03-08 07:07:00,28.2,15.4,30.21,North,5,3.4,6.4,58,0.00,,OVC022,0.00,VWS V14.00,2013-03-08 12:07:00,
2013-03-08 07:12:00,28.2,15.4,30.21,NNW,343,2.5,3.8,58,0.00,,OVC022,0.00,VWS V14.00,2013-03-08 12:12:00,
2013-03-08 07:17:00,28.2,15.0,30.21,North,357,0.0,9.9,57,0.00,,OVC033,0.00,VWS V14.00,2013-03-08 12:17:00,
2013-03-08 07:22:00,28.4,15.6,30.21,North,349,3.0,3.2,58,0.00,,OVC033,0.00,VWS V14.00,2013-03-08 12:22:00,
2013-03-08 07:27:00,28.4,15.2,30.21,NNW,331,8.4,11.0,57,0.00,,OVC033,0.00,VWS V14.00,2013-03-08 12:27:00,
2013-03-08 07:32:00,28.4,15.6,30.21,ENE,66,6.9,7.5,58,0.00,,OVC033,0.00,VWS V14.00,2013-03-08 12:32:00,
2013-03-08 07:37:00,28.4,16.7,30.21,SSW,206,8.9,11.5,61,0.00,,OVC033,0.00,VWS V14.00,2013-03-08 12:37:00,
2013-03-08 07:42:00,28.4,15.6,30.21,NE,37,5.4,10.5,58,0.00,,OVC033,0.00,VWS V14.00,2013-03-08 12:42:00,
2013-03-08 07:48:00,28.4,15.2,30.21,NW,322,8.4,12.6,57,0.00,,OVC033,0.00,VWS V14.00,2013-03-08 12:48:00,
2013-03-08 07:53:00,28.6,15.7,30.21,East,81,2.5,3.8,58,0.00,,OVC033,0.00,VWS V14.00,2013-03-08 12:53:00,
2013-03-08 07:58:00,28.8,15.9,30.21,South,181,3.4,7.0,58,0.00,,OVC033,0.00,VWS V14.00,2013-03-08 12:58:00,
2013-03-08 08:03:00,28.6,15.7,30.21,NW,322,6.4,9.7,58,0.00,,OVC027,0.00,VWS V14.00,2013-03-08 13:03:00,
2013-03-08 08:08:00,29.0,15.7,30.21,NW,326,5.9,6.4,57,0.00,,OVC027,0.00,VWS V14.00,2013-03-08 13:08:00,
2013-03-08 08:13:00,29.0,15.7,30.21,WSW,252,3.4,4.8,57,0.00,,OVC027,0.00,VWS V14.00,2013-03-08 13:13:00,
2013-03-08 08:18:00,29.0,15.3,30.24,NNW,340,3.4,3.8,56,0.00,,OVC027,0.00,VWS V14.00,2013-03-08 13:18:00,
2013-03-08 08:23:00,29.2,15.4,30.24,NNW,338,11.6,21.5,56,0.00,,OVC027,0.00,VWS V14.00,2013-03-08 13:23:00,
2013-03-08 08:28:00,29.4,15.6,30.24,NNW,333,6.4,7.5,56,0.00,,OVC027,0.00,VWS V14.00,2013-03-08 13:28:00,
2013-03-08 08:33:00,29.4,15.6,30.24,NW,305,3.9,7.0,56,0.00,,OVC027,0.00,VWS V14.00,2013-03-08 13:33:00,
2013-03-08 08:38:00,29.2,15.4,30.24,NW,310,14.0,15.3,56,0.00,,OVC027,0.00,VWS V14.00,2013-03-08 13:38:00,
2013-03-08 08:43:00,29.2,15.4,30.24,NW,323,8.4,9.9,56,0.00,,OVC027,0.00,VWS V14.00,2013-03-08 13:43:00,
2013-03-08 08:48:00,29.4,15.6,30.24,WNW,297,14.0,15.3,56,0.00,,OVC016,0.00,VWS V14.00,2013-03-08 13:48:00,
2013-03-08 08:53:00,29.4,15.2,30.24,NE,44,5.9,16.4,55,0.00,,OVC016,0.00,VWS V14.00,2013-03-08 13:53:00,
2013-03-08 08:58:00,30.1,15.9,30.24,West,266,5.9,6.4,55,0.00,,OVC016,0.00,VWS V14.00,2013-03-08 13:58:00,
2013-03-08 09:03:00,30.3,15.7,30.24,NW,306,2.5,4.3,54,0.00,,OVC021,0.00,VWS V14.00,2013-03-08 14:03:00,
2013-03-08 09:08:00,30.1,15.5,30.24,NNE,32,3.0,6.4,54,0.00,,OVC021,0.00,VWS V14.00,2013-03-08 14:08:00,
2013-03-08 09:14:00,30.9,15.8,30.24,NE,41,0.0,0.0,53,0.00,,OVC021,0.00,VWS V14.00,2013-03-08 14:14:00,
2013-03-08 09:19:00,31.4,16.7,30.24,SE,138,5.9,8.1,54,0.00,,OVC021,0.00,VWS V14.00,2013-03-08 14:19:00,
2013-03-08 09:24:00,31.4,16.7,30.24,WSW,251,3.0,5.9,54,0.00,,OVC021,0.00,VWS V14.00,2013-03-08 14:24:00,
2013-03-08 09:29:00,31.6,17.3,30.24,East,94,3.0,3.2,55,0.00,,OVC021,0.00,VWS V14.00,2013-03-08 14:29:00,
2013-03-08 09:34:00,31.4,16.7,30.24,West,260,5.9,6.4,54,0.00,,OVC021,0.00,VWS V14.00,2013-03-08 14:34:00,
2013-03-08 09:39:00,31.6,16.9,30.24,NNW,345,3.9,4.3,54,0.00,,OVC021,0.00,VWS V14.00,2013-03-08 14:39:00,
2013-03-08 09:44:00,31.8,17.0,30.24,NNW,332,3.0,6.4,54,0.00,,OVC021,0.00,VWS V14.00,2013-03-08 14:44:00,
2013-03-08 09:49:00,32.0,16.8,30.24,NW,316,8.9,9.7,53,0.00,,OVC021,0.00,VWS V14.00,2013-03-08 14:49:00,
2013-03-08 09:54:00,31.8,16.2,30.24,NW,316,3.0,6.4,52,0.00,,OVC021,0.00,VWS V14.00,2013-03-08 14:54:00,
2013-03-08 09:59:00,32.2,17.0,30.24,NW,318,3.4,7.0,53,0.00,,OVC021,0.00,VWS V14.00,2013-03-08 14:59:00,
2013-03-08 10:04:00,32.0,17.2,30.24,WNW,302,8.9,9.7,54,0.00,,OVC020,0.00,VWS V14.00,2013-03-08 15:04:00,
2013-03-08 10:09:00,33.1,17.8,30.24,NW,326,2.5,3.2,53,0.00,,OVC020,0.00,VWS V14.00,2013-03-08 15:09:00,
2013-03-08 10:14:00,33.3,17.5,30.24,NW,326,3.4,3.8,52,0.00,,OVC020,0.00,VWS V14.00,2013-03-08 15:14:00,
2013-03-08 10:19:00,33.6,17.9,30.24,NW,307,5.9,7.0,52,0.00,,OVC020,0.00,VWS V14.00,2013-03-08 15:19:00,
2013-03-08 10:24:00,34.0,18.7,30.24,West,264,6.4,7.0,53,0.00,,OVC020,0.00,VWS V14.00,2013-03-08 15:24:00,
2013-03-08 10:29:00,34.6,18.8,30.24,NW,317,8.9,9.7,52,0.00,,OVC020,0.00,VWS V14.00,2013-03-08 15:29:00,
2013-03-08 10:34:00,34.4,18.6,30.24,NW,307,12.1,15.3,52,0.00,,OVC020,0.00,VWS V14.00,2013-03-08 15:34:00,
2013-03-08 10:39:00,33.8,18.1,30.24,WNW,290,8.9,9.9,52,0.00,,OVC020,0.00,VWS V14.00,2013-03-08 15:39:00,
2013-03-08 10:44:00,34.0,18.7,30.24,NW,315,10.6,18.5,53,0.00,,OVC020,0.00,VWS V14.00,2013-03-08 15:44:00,
2013-03-08 10:49:00,33.6,18.3,30.24,NNW,338,8.9,15.3,53,0.00,,OVC020,0.00,VWS V14.00,2013-03-08 15:49:00,
2013-03-08 10:54:00,34.2,18.9,30.24,NNW,340,4.4,10.5,53,0.00,,OVC020,0.00,VWS V14.00,2013-03-08 15:54:00,
2013-03-08 10:59:00,34.6,18.8,30.24,NW,325,9.1,10.5,52,0.00,,OVC020,0.00,VWS V14.00,2013-03-08 15:59:00,
2013-03-08 11:04:00,34.4,18.6,30.24,NW,311,6.9,7.5,52,0.00,,OVC020,0.00,VWS V14.00,2013-03-08 16:04:00,
2013-03-08 11:09:00,34.6,18.8,30.24,WNW,303,6.9,10.5,52,0.00,,OVC020,0.00,VWS V14.00,2013-03-08 16:09:00,
2013-03-08 11:14:00,34.9,18.6,30.24,NNW,333,14.0,20.9,51,0.00,,OVC020,0.00,VWS V14.00,2013-03-08 16:14:00,
2013-03-08 11:19:00,35.7,19.3,30.24,NW,319,9.1,9.9,51,0.00,,BKN029,0.00,VWS V14.00,2013-03-08 16:19:00,
2013-03-08 11:25:00,35.7,18.9,30.24,NW,310,0.0,2.7,50,0.00,,BKN029,0.00,VWS V14.00,2013-03-08 16:25:00,
2013-03-08 11:30:00,36.2,18.9,30.24,WNW,300,9.1,9.9,49,0.00,,BKN029,0.00,VWS V14.00,2013-03-08 16:30:00,
2013-03-08 11:35:00,37.2,19.8,30.24,NNW,332,7.4,9.7,49,0.00,,BKN029,0.00,VWS V14.00,2013-03-08 16:35:00,
2013-03-08 11:40:00,36.6,19.3,30.24,WNW,303,9.6,12.6,49,0.00,,BKN029,0.00,VWS V14.00,2013-03-08 16:40:00,
2013-03-08 11:45:00,35.7,18.9,30.24,WNW,303,11.6,15.3,50,0.00,,BKN029,0.00,VWS V14.00,2013-03-08 16:45:00,
2013-03-08 11:50:00,35.5,19.2,30.24,NW,321,13.5,18.5,51,0.00,,BKN029,0.00,VWS V14.00,2013-03-08 16:50:00,
2013-03-08 11:55:00,35.5,19.6,30.24,NW,313,19.2,20.9,52,0.00,,BKN029,0.00,VWS V14.00,2013-03-08 16:55:00,
2013-03-08 12:00:00,35.8,19.5,30.24,WNW,299,8.9,10.5,51,0.00,,BKN029,0.00,VWS V14.00,2013-03-08 17:00:00,
2013-03-08 12:05:00,36.0,19.7,30.21,WNW,298,12.1,13.2,51,0.00,,BKN026,0.00,VWS V14.00,2013-03-08 17:05:00,
2013-03-08 12:10:00,36.0,19.7,30.21,NNW,328,11.1,12.1,51,0.00,,BKN026,0.00,VWS V14.00,2013-03-08 17:10:00,
2013-03-08 12:15:00,36.4,20.0,30.21,NW,307,14.0,15.3,51,0.00,,BKN026,0.00,VWS V14.00,2013-03-08 17:15:00,
2013-03-08 12:20:00,36.4,20.0,30.21,NW,321,14.5,15.8,51,0.00,,BKN026,0.00,VWS V14.00,2013-03-08 17:20:00,
2013-03-08 12:25:00,37.2,20.2,30.21,NW,306,12.1,15.3,50,0.00,,BKN026,0.00,VWS V14.00,2013-03-08 17:25:00,
2013-03-08 12:30:00,36.8,19.9,30.21,NW,317,9.1,9.9,50,0.00,,BKN026,0.00,VWS V14.00,2013-03-08 17:30:00,
2013-03-08 12:35:00,37.2,20.7,30.21,NW,304,6.9,7.5,51,0.00,,SCT032,0.00,VWS V14.00,2013-03-08 17:35:00,
2013-03-08 12:40:00,37.3,20.4,30.21,NW,308,14.0,18.0,50,0.00,,SCT032,0.00,VWS V14.00,2013-03-08 17:40:00,
2013-03-08 12:45:00,37.3,20.4,30.21,NW,318,11.1,12.1,50,0.00,,SCT032,0.00,VWS V14.00,2013-03-08 17:45:00,
2013-03-08 12:50:00,37.2,20.2,30.21,NNW,334,15.5,16.9,50,0.00,,SCT032,0.00,VWS V14.00,2013-03-08 17:50:00,
2013-03-08 12:55:00,37.3,20.4,30.21,WNW,289,14.0,18.5,50,0.00,,SCT032,0.00,VWS V14.00,2013-03-08 17:55:00,
2013-03-08 13:01:00,37.5,20.1,30.21,WNW,301,16.5,18.0,49,0.00,,SCT032,0.00,VWS V14.00,2013-03-08 18:01:00,
2013-03-08 13:06:00,37.0,20.1,30.21,NW,323,10.1,15.3,50,0.00,,BKN032,0.00,VWS V14.00,2013-03-08 18:06:00,
2013-03-08 13:11:00,37.2,20.2,30.21,WNW,302,9.6,10.5,50,0.00,,BKN032,0.00,VWS V14.00,2013-03-08 18:11:00,
2013-03-08 13:16:00,36.6,20.2,30.21,WNW,303,16.5,20.4,51,0.00,,BKN032,0.00,VWS V14.00,2013-03-08 18:16:00,
2013-03-08 13:21:00,36.8,20.8,30.21,NW,323,17.0,18.5,52,0.00,,BKN032,0.00,VWS V14.00,2013-03-08 18:21:00,
2013-03-08 13:26:00,37.3,20.9,30.21,NW,316,11.6,15.3,51,0.00,,BKN032,0.00,VWS V14.00,2013-03-08 18:26:00,
2013-03-08 13:31:00,37.3,20.9,30.21,NW,316,8.9,12.6,51,0.00,,BKN032,0.00,VWS V14.00,2013-03-08 18:31:00,
2013-03-08 13:36:00,37.5,21.0,30.21,WNW,292,11.6,15.8,51,0.00,,BKN032,0.00,VWS V14.00,2013-03-08 18:36:00,
2013-03-08 13:41:00,37.0,20.5,30.21,WNW,300,11.6,14.8,51,0.00,,BKN032,0.00,VWS V14.00,2013-03-08 18:41:00,
2013-03-08 13:46:00,37.5,21.0,30.21,NW,306,11.6,12.6,51,0.00,,BKN032,0.00,VWS V14.00,2013-03-08 18:46:00,
2013-03-08 13:51:00,37.5,21.0,30.21,NW,321,14.0,16.9,51,0.00,,BKN032,0.00,VWS V14.00,2013-03-08 18:51:00,
2013-03-08 13:56:00,37.0,20.5,30.21,NW,319,17.0,18.5,51,0.00,,BKN032,0.00,VWS V14.00,2013-03-08 18:56:00,
2013-03-08 14:01:00,36.8,20.8,30.21,NNW,328,17.0,25.2,52,0.00,,BKN032,0.00,VWS V14.00,2013-03-08 19:01:00,
2013-03-08 14:06:00,37.2,20.2,30.21,NNW,328,11.6,14.8,50,0.00,,SCT034,0.00,VWS V14.00,2013-03-08 19:06:00,
2013-03-08 14:11:00,37.2,20.7,30.21,NNW,327,11.1,14.8,51,0.00,,SCT034,0.00,VWS V14.00,2013-03-08 19:11:00,
2013-03-08 14:17:00,37.3,20.9,30.21,NNW,338,9.1,12.6,51,0.00,,SCT034,0.00,VWS V14.00,2013-03-08 19:17:00,
2013-03-08 14:22:00,37.0,20.5,30.21,NW,315,14.5,15.8,51,0.00,,SCT034,0.00,VWS V14.00,2013-03-08 19:22:00,
2013-03-08 14:27:00,37.7,20.8,30.21,NNW,331,8.4,10.5,50,0.00,,SCT034,0.00,VWS V14.00,2013-03-08 19:27:00,
2013-03-08 14:32:00,37.9,21.4,30.21,NW,323,8.9,9.9,51,0.00,,SCT034,0.00,VWS V14.00,2013-03-08 19:32:00,
2013-03-08 14:37:00,37.5,20.6,30.21,NW,307,8.4,10.5,50,0.00,,SCT034,0.00,VWS V14.00,2013-03-08 19:37:00,
2013-03-08 14:42:00,37.9,21.4,30.21,NW,317,5.9,7.5,51,0.00,,SCT034,0.00,VWS V14.00,2013-03-08 19:42:00,
2013-03-08 14:47:00,38.5,21.4,30.21,NW,315,5.9,7.0,50,0.00,,SCT034,0.00,VWS V14.00,2013-03-08 19:47:00,
2013-03-08 14:52:00,38.6,21.6,30.21,NW,306,9.6,10.5,50,0.00,,SCT034,0.00,VWS V14.00,2013-03-08 19:52:00,
2013-03-08 14:57:00,38.1,21.6,30.21,NW,308,6.9,8.1,51,0.00,,SCT034,0.00,VWS V14.00,2013-03-08 19:57:00,
2013-03-08 15:02:00,37.5,21.0,30.21,NW,312,11.1,12.6,51,0.00,,SCT034,0.00,VWS V14.00,2013-03-08 20:02:00,
2013-03-08 15:07:00,38.1,21.6,30.21,NNW,329,8.9,10.5,51,0.00,,CLR,0.00,VWS V14.00,2013-03-08 20:07:00,
2013-03-08 15:12:00,37.5,21.0,30.21,WNW,299,11.1,15.3,51,0.00,,CLR,0.00,VWS V14.00,2013-03-08 20:12:00,
2013-03-08 15:17:00,37.5,21.5,30.21,NW,307,12.1,13.7,52,0.00,,CLR,0.00,VWS V14.00,2013-03-08 20:17:00,
2013-03-08 15:22:00,37.3,21.3,30.21,NW,314,17.0,18.5,52,0.00,,CLR,0.00,VWS V14.00,2013-03-08 20:22:00,
2013-03-08 15:27:00,37.5,21.0,30.21,NNW,342,9.1,15.8,51,0.00,,CLR,0.00,VWS V14.00,2013-03-08 20:27:00,
2013-03-08 15:32:00,38.1,21.6,30.21,NNW,329,9.1,10.5,51,0.00,,CLR,0.00,VWS V14.00,2013-03-08 20:32:00,
2013-03-08 15:37:00,38.3,21.3,30.21,WNW,298,8.9,10.5,50,0.00,,CLR,0.00,VWS V14.00,2013-03-08 20:37:00,
2013-03-08 15:43:00,38.5,21.4,30.21,NNW,331,9.6,12.6,50,0.00,,CLR,0.00,VWS V14.00,2013-03-08 20:43:00,
2013-03-08 15:48:00,38.6,21.6,30.21,NNW,333,8.9,10.5,50,0.00,,CLR,0.00,VWS V14.00,2013-03-08 20:48:00,
2013-03-08 15:53:00,38.5,21.4,30.21,NW,325,9.6,15.8,50,0.00,,CLR,0.00,VWS V14.00,2013-03-08 20:53:00,
2013-03-08 15:58:00,38.6,21.6,30.21,NNW,345,9.6,14.8,50,0.00,,CLR,0.00,VWS V14.00,2013-03-08 20:58:00,
2013-03-08 16:03:00,39.0,22.0,30.21,NW,315,8.9,10.5,50,0.00,,CLR,0.00,VWS V14.00,2013-03-08 21:03:00,
2013-03-08 16:08:00,39.0,22.0,30.21,NW,316,5.9,7.0,50,0.00,,CLR,0.00,VWS V14.00,2013-03-08 21:08:00,
2013-03-08 16:13:00,38.6,22.1,30.21,WNW,302,6.4,7.0,51,0.00,,CLR,0.00,VWS V14.00,2013-03-08 21:13:00,
2013-03-08 16:18:00,38.5,21.9,30.21,NW,308,7.4,8.1,51,0.00,,CLR,0.00,VWS V14.00,2013-03-08 21:18:00,
2013-03-08 16:23:00,38.3,21.7,30.21,NW,310,6.4,7.5,51,0.00,,CLR,0.00,VWS V14.00,2013-03-08 21:23:00,
2013-03-08 16:28:00,38.1,21.6,30.21,NW,315,6.4,7.0,51,0.00,,CLR,0.00,VWS V14.00,2013-03-08 21:28:00,
2013-03-08 16:33:00,37.7,21.7,30.21,WNW,292,5.9,7.5,52,0.00,,CLR,0.00,VWS V14.00,2013-03-08 21:33:00,
2013-03-08 16:38:00,38.3,22.2,30.21,WNW,291,4.4,7.0,52,0.00,,CLR,0.00,VWS V14.00,2013-03-08 21:38:00,
2013-03-08 16:43:00,38.1,22.0,30.21,NW,326,11.6,12.6,52,0.00,,CLR,0.00,VWS V14.00,2013-03-08 21:43:00,
2013-03-08 16:48:00,37.7,21.7,30.21,NW,308,9.6,12.6,52,0.00,,CLR,0.00,VWS V14.00,2013-03-08 21:48:00,
2013-03-08 16:53:00,37.2,22.1,30.21,NW,313,12.1,14.8,54,0.00,,CLR,0.00,VWS V14.00,2013-03-08 21:53:00,
2013-03-08 16:58:00,37.2,21.6,30.21,NW,315,9.6,13.2,53,0.00,,CLR,0.00,VWS V14.00,2013-03-08 21:58:00,
2013-03-08 17:03:00,37.3,22.2,30.24,NW,323,11.6,12.6,54,0.00,,CLR,0.00,VWS V14.00,2013-03-08 22:03:00,
2013-03-08 17:08:00,37.2,21.6,30.24,NNW,333,14.0,15.3,53,0.00,,CLR,0.00,VWS V14.00,2013-03-08 22:08:00,
2013-03-08 17:13:00,37.3,22.2,30.24,NNW,338,4.4,6.4,54,0.00,,CLR,0.00,VWS V14.00,2013-03-08 22:13:00,
2013-03-08 17:19:00,37.2,21.6,30.21,NNW,339,11.1,13.2,53,0.00,,CLR,0.00,VWS V14.00,2013-03-08 22:19:00,
2013-03-08 17:23:00,37.3,21.8,30.21,NNW,342,6.4,7.0,53,0.00,,CLR,0.00,VWS V14.00,2013-03-08 22:23:00,
2013-03-08 17:29:00,37.5,22.0,30.21,NNW,339,3.0,3.8,53,0.00,,CLR,0.00,VWS V14.00,2013-03-08 22:29:00,
2013-03-08 17:34:00,37.5,22.0,30.24,NNW,328,3.0,4.3,53,0.00,,CLR,0.00,VWS V14.00,2013-03-08 22:34:00,
2013-03-08 17:39:00,37.5,21.5,30.24,NNW,331,3.0,4.8,52,0.00,,CLR,0.00,VWS V14.00,2013-03-08 22:39:00,
2013-03-08 17:44:00,37.3,21.8,30.24,NNW,328,5.9,6.4,53,0.00,,CLR,0.00,VWS V14.00,2013-03-08 22:44:00,
2013-03-08 17:49:00,37.0,21.4,30.24,NW,325,3.0,4.8,53,0.00,,CLR,0.00,VWS V14.00,2013-03-08 22:49:00,
2013-03-08 17:54:00,36.6,21.1,30.24,NNW,333,4.4,4.8,53,0.00,,CLR,0.00,VWS V14.00,2013-03-08 22:54:00,
2013-03-08 17:59:00,36.2,20.8,30.24,NW,306,5.9,7.0,53,0.00,,CLR,0.00,VWS V14.00,2013-03-08 22:59:00,
2013-03-08 18:04:00,35.8,20.4,30.24,NW,320,3.0,4.3,53,0.00,,CLR,0.00,VWS V14.00,2013-03-08 23:04:00,
2013-03-08 18:09:00,35.8,20.9,30.24,NNW,327,2.5,3.2,54,0.00,,CLR,0.00,VWS V14.00,2013-03-08 23:09:00,
2013-03-08 18:14:00,35.7,21.1,30.24,NNW,327,0.0,0.0,55,0.00,,CLR,0.00,VWS V14.00,2013-03-08 23:14:00,
2013-03-08 18:19:00,35.5,20.9,30.24,NNW,327,0.0,0.0,55,0.00,,CLR,0.00,VWS V14.00,2013-03-08 23:19:00,
2013-03-08 18:24:00,35.3,20.8,30.24,NW,324,2.5,2.7,55,0.00,,CLR,0.00,VWS V14.00,2013-03-08 23:24:00,
2013-03-08 18:29:00,34.9,20.4,30.24,West,278,3.0,3.2,55,0.00,,CLR,0.00,VWS V14.00,2013-03-08 23:29:00,
2013-03-08 18:34:00,34.7,20.7,30.24,WSW,257,3.0,3.2,56,0.00,,CLR,0.00,VWS V14.00,2013-03-08 23:34:00,
2013-03-08 18:39:00,34.6,20.5,30.24,WSW,255,0.0,0.0,56,0.00,,CLR,0.00,VWS V14.00,2013-03-08 23:39:00,
2013-03-08 18:44:00,34.4,20.7,30.24,WSW,255,0.0,0.0,57,0.00,,CLR,0.00,VWS V14.00,2013-03-08 23:44:00,
2013-03-08 18:49:00,33.8,20.2,30.24,WSW,255,0.0,0.0,57,0.00,,CLR,0.00,VWS V14.00,2013-03-08 23:49:00,
2013-03-08 18:54:00,33.8,20.2,30.24,NW,318,3.0,3.2,57,0.00,,CLR,0.00,VWS V14.00,2013-03-08 23:54:00,
2013-03-08 18:59:00,33.8,20.2,30.24,NW,320,3.0,3.2,57,0.00,,CLR,0.00,VWS V14.00,2013-03-08 23:59:00,
2013-03-08 19:04:00,33.8,20.2,30.27,NW,320,2.5,2.7,57,0.00,,CLR,0.00,VWS V14.00,2013-03-09 00:04:00,
2013-03-08 19:09:00,33.4,19.9,30.27,NW,320,0.0,0.0,57,0.00,,CLR,0.00,VWS V14.00,2013-03-09 00:09:00,
2013-03-08 19:15:00,33.4,19.9,30.27,NW,320,0.0,0.0,57,0.00,,CLR,0.00,VWS V14.00,2013-03-09 00:15:00,
2013-03-08 19:20:00,33.3,19.7,30.27,NW,320,3.0,3.8,57,0.00,,CLR,0.00,VWS V14.00,2013-03-09 00:20:00,
2013-03-08 19:25:00,33.1,19.9,30.27,NW,320,0.0,0.0,58,0.00,,CLR,0.00,VWS V14.00,2013-03-09 00:25:00,
2013-03-08 19:30:00,32.9,19.3,30.27,NW,320,0.0,2.7,57,0.00,,CLR,0.00,VWS V14.00,2013-03-09 00:30:00,
2013-03-08 19:35:00,32.7,19.6,30.27,NW,320,2.5,3.2,58,0.00,,CLR,0.00,VWS V14.00,2013-03-09 00:35:00,
2013-03-08 19:40:00,32.5,19.8,30.27,NW,320,0.0,0.0,59,0.00,,CLR,0.00,VWS V14.00,2013-03-09 00:40:00,
2013-03-08 19:45:00,32.3,20.0,30.27,NW,320,0.0,2.7,60,0.00,,CLR,0.00,VWS V14.00,2013-03-09 00:45:00,
2013-03-08 19:50:00,32.3,20.8,30.24,ENE,59,3.0,4.3,62,0.00,,CLR,0.00,VWS V14.00,2013-03-09 00:50:00,
2013-03-08 19:55:00,32.2,21.0,30.24,ENE,63,0.0,2.7,63,0.00,,CLR,0.00,VWS V14.00,2013-03-09 00:55:00,
2013-03-08 20:00:00,32.0,20.8,30.24,ENE,70,0.0,3.2,63,0.00,,CLR,0.00,VWS V14.00,2013-03-09 01:00:00,
2013-03-08 20:05:00,32.0,20.8,30.24,SSE,153,4.4,4.8,63,0.00,,CLR,0.00,VWS V14.00,2013-03-09 01:05:00,
2013-03-08 20:10:00,32.0,20.8,30.24,South,185,3.4,3.8,63,0.00,,CLR,0.00,VWS V14.00,2013-03-09 01:10:00,
2013-03-08 20:15:00,31.6,20.8,30.24,South,178,3.0,3.2,64,0.00,,CLR,0.00,VWS V14.00,2013-03-09 01:15:00,
2013-03-08 20:20:00,31.6,21.2,30.24,SSE,155,3.0,3.2,65,0.00,,CLR,0.00,VWS V14.00,2013-03-09 01:20:00,
2013-03-08 20:25:00,31.6,21.2,30.24,ESE,113,2.5,2.7,65,0.00,,CLR,0.00,VWS V14.00,2013-03-09 01:25:00,
2013-03-08 20:30:00,31.4,21.0,30.24,East,100,3.0,3.2,65,0.00,,CLR,0.00,VWS V14.00,2013-03-09 01:30:00,
2013-03-08 20:35:00,31.4,21.0,30.24,East,100,0.0,0.0,65,0.00,,CLR,0.00,VWS V14.00,2013-03-09 01:35:00,
2013-03-08 20:41:00,31.4,21.0,30.24,East,85,3.0,4.3,65,0.00,,CLR,0.00,VWS V14.00,2013-03-09 01:41:00,
2013-03-08 20:46:00,31.2,21.2,30.24,East,84,0.0,0.0,66,0.00,,CLR,0.00,VWS V14.00,2013-03-09 01:46:00,
2013-03-08 20:51:00,31.2,20.8,30.24,East,84,0.0,3.2,65,0.00,,CLR,0.00,VWS V14.00,2013-03-09 01:51:00,
2013-03-08 20:56:00,31.0,21.0,30.24,East,84,0.0,0.0,66,0.00,,CLR,0.00,VWS V14.00,2013-03-09 01:56:00,
2013-03-08 21:01:00,31.0,20.7,30.24,East,85,0.0,0.0,65,0.00,,CLR,0.00,VWS V14.00,2013-03-09 02:01:00,
2013-03-08 21:06:00,30.7,20.7,30.24,SSE,155,2.5,3.8,66,0.00,,CLR,0.00,VWS V14.00,2013-03-09 02:06:00,
2013-03-08 21:11:00,30.5,20.5,30.24,SE,142,2.5,4.3,66,0.00,,CLR,0.00,VWS V14.00,2013-03-09 02:11:00,
2013-03-08 21:16:00,30.3,20.3,30.24,SSW,213,3.0,3.8,66,0.00,,CLR,0.00,VWS V14.00,2013-03-09 02:16:00,
2013-03-08 21:21:00,30.1,19.8,30.24,WSW,237,0.0,2.7,65,0.00,,CLR,0.00,VWS V14.00,2013-03-09 02:21:00,
2013-03-08 21:26:00,29.9,19.6,30.24,WSW,237,2.5,2.7,65,0.00,,CLR,0.00,VWS V14.00,2013-03-09 02:26:00,
2013-03-08 21:31:00,30.1,19.8,30.24,WSW,237,0.0,2.7,65,0.00,,CLR,0.00,VWS V14.00,2013-03-09 02:31:00,
2013-03-08 21:36:00,30.1,19.8,30.27,SSW,208,0.0,2.7,65,0.00,,CLR,0.00,VWS V14.00,2013-03-09 02:36:00,
2013-03-08 21:41:00,29.9,19.2,30.27,SSW,208,0.0,0.0,64,0.00,,CLR,0.00,VWS V14.00,2013-03-09 02:41:00,
2013-03-08 21:46:00,29.9,19.2,30.27,SSW,208,0.0,0.0,64,0.00,,CLR,0.00,VWS V14.00,2013-03-09 02:46:00,
2013-03-08 21:51:00,29.7,19.1,30.27,SSW,208,0.0,0.0,64,0.00,,CLR,0.00,VWS V14.00,2013-03-09 02:51:00,
2013-03-08 21:56:00,29.7,19.1,30.27,SSW,209,3.4,3.8,64,0.00,,CLR,0.00,VWS V14.00,2013-03-09 02:56:00,
2013-03-08 22:01:00,29.2,18.9,30.27,South,183,3.4,3.8,65,0.00,,CLR,0.00,VWS V14.00,2013-03-09 03:01:00,
2013-03-08 22:06:00,29.2,18.9,30.27,South,187,0.0,0.0,65,0.00,,CLR,0.00,VWS V14.00,2013-03-09 03:06:00,
2013-03-08 22:11:00,29.2,18.9,30.27,South,187,0.0,0.0,65,0.00,,CLR,0.00,VWS V14.00,2013-03-09 03:11:00,
2013-03-08 22:16:00,29.4,19.4,30.27,South,187,0.0,0.0,66,0.00,,CLR,0.00,VWS V14.00,2013-03-09 03:16:00,
2013-03-08 22:21:00,29.2,19.2,30.27,South,187,0.0,0.0,66,0.00,,CLR,0.00,VWS V14.00,2013-03-09 03:21:00,
2013-03-08 22:27:00,29.2,19.2,30.27,South,187,2.5,2.7,66,0.00,,CLR,0.00,VWS V14.00,2013-03-09 03:27:00,
2013-03-08 22:32:00,29.0,19.4,30.27,South,187,2.5,2.7,67,0.00,,CLR,0.00,VWS V14.00,2013-03-09 03:32:00,
2013-03-08 22:37:00,28.6,19.1,30.27,South,187,2.5,2.7,67,0.00,,CLR,0.00,VWS V14.00,2013-03-09 03:37:00,
2013-03-08 22:42:00,28.4,19.2,30.27,South,187,0.0,0.0,68,0.00,,CLR,0.00,VWS V14.00,2013-03-09 03:42:00,
2013-03-08 22:47:00,28.2,19.1,30.27,South,187,0.0,0.0,68,0.00,,CLR,0.00,VWS V14.00,2013-03-09 03:47:00,
2013-03-08 22:52:00,28.2,19.1,30.27,South,187,0.0,0.0,68,0.00,,CLR,0.00,VWS V14.00,2013-03-09 03:52:00,
2013-03-08 22:57:00,28.2,19.1,30.27,South,187,0.0,2.7,68,0.00,,CLR,0.00,VWS V14.00,2013-03-09 03:57:00,
2013-03-08 23:02:00,28.1,18.9,30.27,South,187,0.0,0.0,68,0.00,,CLR,0.00,VWS V14.00,2013-03-09 04:02:00,
2013-03-08 23:07:00,27.9,18.7,30.27,South,187,0.0,0.0,68,0.00,,CLR,0.00,VWS V14.00,2013-03-09 04:07:00,
2013-03-08 23:12:00,27.5,18.4,30.27,South,187,0.0,0.0,68,0.00,,CLR,0.00,VWS V14.00,2013-03-09 04:12:00,
2013-03-08 23:17:00,27.3,18.5,30.27,South,187,0.0,0.0,69,0.00,,CLR,0.00,VWS V14.00,2013-03-09 04:17:00,
2013-03-08 23:22:00,26.8,18.3,30.27,SW,220,0.0,0.0,70,0.00,,CLR,0.00,VWS V14.00,2013-03-09 04:22:00,
2013-03-08 23:27:00,26.6,18.1,30.27,SW,220,0.0,2.7,70,0.00,,CLR,0.00,VWS V14.00,2013-03-09 04:27:00,
2013-03-08 23:32:00,26.2,18.1,30.27,SW,222,0.0,2.7,71,0.00,,CLR,0.00,VWS V14.00,2013-03-09 04:32:00,
2013-03-08 23:37:00,26.4,18.6,30.27,SW,222,0.0,0.0,72,0.00,,CLR,0.00,VWS V14.00,2013-03-09 04:37:00,
2013-03-08 23:42:00,26.6,18.8,30.27,SW,222,0.0,0.0,72,0.00,,CLR,0.00,VWS V14.00,2013-03-09 04:42:00,
2013-03-08 23:47:00,26.6,18.8,30.27,SW,222,0.0,0.0,72,0.00,,CLR,0.00,VWS V14.00,2013-03-09 04:47:00,
2013-03-08 23:53:00,26.6,18.8,30.27,SW,222,0.0,0.0,72,0.00,,CLR,0.00,VWS V14.00,2013-03-09 04:53:00,
2013-03-08 23:58:00,26.4,18.9,30.27,SW,222,0.0,0.0,73,0.00,,CLR,0.00,VWS V14.00,2013-03-09 04:58:00,